Location: Wayah Bald
(35.1806°N, 83.5603°W)
Time: 17:29:26
(UTC-04:00)

Daily predictions for brighter satellites

Satellite Brightness Start Highest point End
(mag) Time Altitude Azimuth Time Altitude Azimuth Time Altitude Azimuth
CZ-4C R/B 3.8 20:27:37 10° NW 20:34:52 56° WSW 20:42:42 10° S
ATLAS 2AS CENTAUR R/B 3.5 20:29:41 10° S 20:36:22 36° ESE 20:43:29 10° NE
Intercosmos 25 Rocket 3.5 20:37:13 10° NNW 20:40:20 60° W 20:43:43 10° S
BREEZE-M DEB (TANK) 1.9 20:40:15 10° SW 20:42:38 83° SE 20:47:24 10° NE
BREEZE-M DEB (TANK) 3.6 20:43:44 10° NW 20:46:54 51° NE 20:58:59 10° ESE
H-2A R/B 2.7 20:43:07 10° SSE 20:46:56 87° W 20:50:42 10° NNW
Delta 2 Rocket 3.7 20:43:26 10° SW 20:47:06 45° SSE 20:51:16 10° E
NOSS 2-3 (E) 3.9 20:42:48 10° SSW 20:47:14 52° ESE 20:52:10 10° NE
ALOS 3.7 20:47:44 10° S 20:52:07 41° W 20:56:32 10° NNW
Cosmos 839 Rocket 4.3 20:45:57 10° SSW 20:52:18 74° WNW 20:58:31 10° NNE
Cosmos 2227 4.2 20:47:36 10° NNW 20:53:15 71° ENE 20:58:53 10° SSE
Resurs 1-3 4.0 20:50:39 10° SE 20:54:49 45° ENE 20:59:01 10° N
USA 186 2.6 20:51:55 10° SE 20:54:59 34° ENE 20:58:05 10° N
Lacrosse 5 2.0 20:50:34 10° SSW 20:55:29 53° SE 21:00:25 10° NE
Cosmos 1452 Rocket 3.9 20:50:36 10° SSW 20:55:51 70° WNW 21:01:08 10° NNE
Helios 1B rocket 4.2 20:54:17 10° ENE 20:56:19 13° E 20:57:35 12° ESE
Cosmos 1420 Rocket 3.9 20:51:57 10° SSW 20:57:07 82° ESE 21:02:19 10° NNE
Cosmos 1812 4.3 20:53:45 10° NNW 20:57:23 39° W 21:00:58 10° SSW
Cosmos 407 Rocket 4.3 20:54:42 10° NNW 20:59:55 55° WSW 21:05:03 10° S
Atlas Centaur 2 3.2 20:54:03 10° W 21:02:24 61° S 21:08:52 14° ESE
HJ-1C 4.3 21:00:08 10° S 21:03:28 50° W 21:06:47 10° NNW
Meteor 2-11 Rocket 4.4 20:58:18 10° N 21:04:23 76° E 21:10:26 10° S
Cosmos 1602 3.8 21:05:40 10° S 21:09:30 82° W 21:13:21 10° N
SeaSat 1 2.5 21:05:24 10° NE 21:10:14 53° ESE 21:15:02 10° S
Cosmos 1633 4.3 21:09:09 10° SSW 21:12:30 36° W 21:15:54 10° NNW
Okean 1 Rocket 3.8 21:11:47 10° SSE 21:15:38 32° E 21:19:31 10° NNE
Cosmos 1300 Rocket 3.6 21:12:20 10° S 21:16:30 51° E 21:20:41 10° NNE
GENESIS II 4.2 21:13:10 10° NNW 21:17:05 66° ENE 21:19:40 20° SE
Cosmos 2263 Rocket 2.7 21:15:00 10° N 21:20:24 42° ENE 21:23:58 20° SE
NOSS 2-3 (C) 4.0 21:16:17 10° SW 21:20:52 75° WNW 21:26:05 10° NNE
Cosmos 2322 Rocket 2.4 21:15:14 10° SSW 21:20:55 75° WNW 21:26:38 10° NNE
Meteor 1-11 Rocket 3.8 21:16:39 10° S 21:22:31 85° E 21:28:17 10° N
Cosmos 1025 Rocket 4.4 21:19:31 10° NNE 21:22:38 19° ENE 21:23:14 19° E
YAOGAN 6 3.6 21:22:13 24° E 21:23:09 27° ENE 21:26:10 10° NNE
GPS 2-05 Rocket1 2.6 21:21:39 10° W 21:25:03 84° SSW 21:26:33 30° ESE
Tiangong 1 2.4 21:23:15 10° NW 21:25:41 26° NNE 21:26:47 20° NE
Cosmos 1140 Rocket 3.8 21:21:32 10° NNW 21:26:46 71° WSW 21:31:58 10° S
Cosmos 614 Rocket 4.0 21:22:43 10° NNW 21:27:51 81° WSW 21:32:56 10° SSE
S3M 4.0 21:21:37 10° N 21:27:56 87° E 21:34:18 10° S
Cosmos 1553 Rocket 4.0 21:22:56 10° N 21:29:05 84° W 21:35:09 10° S
Spot 2 Rocket 3.6 21:24:19 10° S 21:29:24 80° WSW 21:34:31 10° NNW
Cosmos 2266 Rocket 3.9 21:23:34 10° S 21:29:30 63° E 21:35:27 10° NNE
Resurs 01 Rocket 2.1 21:26:22 10° S 21:30:45 60° W 21:35:11 10° NNW
SL-16 R/B 2.9 21:27:34 10° SW 21:33:08 58° WNW 21:38:44 10° NNE
Cosmos 2315 Rocket 4.5 21:34:46 10° N 21:40:38 40° ENE 21:43:24 27° SE
Helios 1A 3.3 21:41:23 34° ESE 21:42:40 46° ENE 21:46:45 10° N
Meteor 1-23 Rocket 4.2 21:38:29 10° N 21:44:00 59° E 21:47:03 26° SSE
Cosmos 2322 3.8 21:39:01 10° S 21:44:28 52° ESE 21:49:57 10° NNE
DELTA 2 R/B (1) 4.2 21:42:15 10° WNW 21:47:36 47° SSW 21:50:09 28° SSE
ERS-1 Rocket 3.8 21:46:40 29° E 21:47:39 32° ENE 21:52:05 10° N
ATLAS 3B R/B 3.4 21:45:24 10° NNW 21:51:28 35° NE 21:53:55 27° E
Cosmos 2360 Rocket 2.1 21:47:56 10° SSW 21:53:34 80° ESE 21:59:12 10° NNE
OAO 1 Rocket 4.4 21:48:47 10° W 21:54:09 86° S 21:56:30 35° E
Meteor 1-29 3.8 21:51:45 10° NNE 21:54:01 35° NE 21:54:01 35° NE
COSMOS 2428 3.3 21:55:48 33° E 21:55:48 33° E 22:00:32 10° NE
Cosmos 1939 Rocket 3.0 21:53:53 28° S 21:55:53 68° W 21:59:49 10° NNW
USA 267 4.1 21:51:52 15° SSE 21:56:55 42° SW 22:03:05 10° WNW
Cosmos 1536 3.9 21:53:12 10° SSW 21:57:08 47° W 22:01:04 10° N
Envisat 3.7 21:53:48 10° S 21:58:43 51° W 22:03:40 10° NNW
Lacrosse 5 rocket 3.6 21:58:47 10° W 22:01:15 17° WSW 22:03:12 12° SSW
Cosmos 1741 Rocket 4.3 21:56:17 10° NNW 22:01:29 65° WSW 22:04:32 25° S
Meteor 1-5 Rocket 4.4 22:01:41 10° SSW 22:06:59 64° W 22:12:15 10° N
Cosmos 482 Debris 4.0 22:02:45 10° SW 22:07:12 73° SW 22:07:12 73° SW
H-2A R/B 3.4 22:08:23 23° ENE 22:08:23 23° ENE 22:11:45 10° NNE
NOAA 11 4.1 22:12:03 50° SE 22:13:23 68° ENE 22:18:51 10° N
Cosmos 1238 Rocket 4.3 22:08:38 10° N 22:15:00 45° ENE 22:15:42 43° E
Meteosat 1 Rocket2 4.3 22:12:02 10° WSW 22:17:14 47° S 22:18:08 44° SSE
Cosmos 1302 Rocket 3.9 22:19:34 64° SE 22:19:51 65° ESE 22:25:05 10° NNE
MetOp-A 4.0 22:24:43 65° ESE 22:25:10 69° ENE 22:30:30 10° N
ATLAS 2AS CENTAUR R/B 4.0 22:19:49 10° SW 22:27:10 48° NW 22:34:57 10° NNE
Delta 2 Rocket 3.7 22:25:18 10° W 22:28:55 67° W 22:28:55 67° W
Aureole 3 Rocket 4.1 22:21:44 10° N 22:29:34 57° ENE 22:30:15 54° ESE
Helios 1B rocket 3.8 22:27:55 10° N 22:31:44 38° WNW 22:33:56 21° SW
SPOT 5 3.6 22:33:36 41° NE 22:33:36 41° NE 22:37:07 10° N
BREEZE M DEB (TANK) 3.4 22:24:09 10° WSW 22:32:41 56° NW 22:33:38 42° N
Cosmos 1241 Rocket 4.4 22:26:14 10° SSW 22:32:48 81° ESE 22:39:20 10° NNE
Intelsat 5-1 Rocket 4.2 22:15:37 10° WSW 22:34:22 45° SSW 22:36:17 40° SSE
Lacrosse 5 4.1 22:34:32 10° W 22:38:41 25° NW 22:42:51 10° NNE
Cosmos 1066 Rocket 4.3 22:36:30 10° N 22:41:15 58° NE 22:41:15 58° NE
Centaur D AC-29 4.0 22:37:43 10° SW 22:43:39 19° SSW 22:43:39 19° SSW
ARGOS 3.1 22:49:54 80° NNW 22:49:54 80° NNW 22:54:58 10° NNW
Atlas Centaur 2 3.4 22:44:23 10° W 22:51:30 38° SSW 22:51:30 38° SSW
Nadezhda 1 Rocket 4.5 22:47:57 10° N 22:53:09 47° NE 22:53:09 47° NE
Cosmos 2263 Rocket 4.0 22:59:39 10° NW 23:03:58 23° W 23:05:41 20° SW
Cosmos 2278 Rocket 3.8 23:03:27 10° N 23:06:39 24° NE 23:06:39 24° NE
SPOT 1/Viking Rocket 4.3 23:10:41 48° N 23:10:41 48° N 23:14:27 10° NNW
Cosmos 1818 4.2 23:10:06 52° WNW 23:10:15 52° WNW 23:15:34 10° NNE
Cosmos 1844 Rocket 3.2 23:05:47 10° NNW 23:10:10 54° N 23:10:10 54° N
Terra 3.8 23:16:55 23° NNE 23:16:55 23° NNE 23:18:48 10° N
Cosmos 2219 Rocket 3.3 23:24:26 38° N 23:24:26 38° N 23:27:55 10° NNE
NOSS 3-2 (A) 4.0 23:18:10 10° NNW 23:25:38 71° NE 23:25:38 71° NE
USA 238 DEB 4.0 23:20:49 10° NW 23:27:24 62° W 23:27:24 62° W
USA 238 4.0 23:20:54 10° NW 23:27:30 62° W 23:27:30 62° W
COSMOS 2428 4.4 23:37:39 24° W 23:39:40 30° WNW 23:44:39 10° N
ATLAS 3B R/B 3.6 23:36:05 10° NW 23:41:11 37° W 23:41:11 37° W
H-2A R/B 3.9 23:49:01 25° WNW 23:49:01 25° WNW 23:51:37 10° NNW
Cosmos 2333 Rocket 3.8 23:55:01 30° N 23:55:01 30° N 23:58:06 10° N
